Home   Weather   Spain   Burgos   Past weeks
Flag for Spain

Past Weather in Burgos, Burgos, Spain — Yesterday and Last 2 Weeks

Currently: 39 °F. Partly sunny. (Weather station: Burgos / Villafria, Spain). See more current weather

Past Weather in Burgos — Graph

°F

Burgos Temperature Yesterday

Maximum temperature yesterday: 55 °F (at 3:30 pm)
Minimum temperature yesterday: 39 °F (at 4:30 am)
Average temperature yesterday: 46 °F

High & Low Weather Summary for the Past Weeks

 TemperatureHumidityPressure
High77 °F (Apr 13, 4:30 pm)100% (Apr 3, 8:00 am)30.54 "Hg (Apr 3, 8:00 am)
Low30 °F (Apr 9, 7:30 am)20% (Apr 5, 6:30 pm)29.83 "Hg (Apr 6, 3:30 am)
Average52 °F69%30.19 "Hg
* Reported Apr 2 8:00 am — Apr 17 8:00 am, Burgos. Weather by CustomWeather, © 2024

Note: Actual official high and low records may vary slightly from our data, if they occured in-between our weather recording intervals... More about our weather records

Burgos Weather History for the Previous 24 Hours

Scroll right to see more
 ConditionsComfort  
Time TempWeatherWind HumidityBarometerVisibility
8:00 am
Wed, Apr 17
39 °FPartly sunny.9 mph87%30.12 "HgN/A
7:30 am41 °FOvercast.10 mph81%30.12 "HgN/A
7:00 am41 °FOvercast.9 mph81%30.12 "HgN/A
6:30 am41 °FOvercast.8 mph81%30.12 "HgN/A
6:00 am41 °FOvercast.8 mph81%30.12 "HgN/A
5:30 am41 °FOvercast.9 mph81%30.12 "HgN/A
5:00 am41 °FPassing clouds.10 mph81%30.12 "HgN/A
4:30 am39 °FPassing clouds.10 mph87%30.12 "HgN/A
4:00 am41 °FOvercast.13 mph81%30.12 "HgN/A
3:30 am41 °FMostly cloudy.17 mph81%30.12 "HgN/A
3:00 am43 °FMostly cloudy.14 mph76%30.15 "HgN/A
2:30 am43 °FOvercast.12 mph76%30.15 "HgN/A
2:00 am43 °FMostly cloudy.10 mph76%30.18 "HgN/A
1:30 am43 °FOvercast.13 mph76%30.18 "HgN/A
1:00 am43 °FMostly cloudy.13 mph76%30.18 "HgN/A
12:30 am43 °FOvercast.12 mph76%30.18 "HgN/A
12:00 am43 °FPassing clouds.15 mph76%30.18 "HgN/A
11:30 pm
Tue, Apr 16
43 °FOvercast.14 mph76%30.18 "HgN/A
11:00 pm43 °FOvercast.13 mph76%30.18 "HgN/A
10:30 pm41 °FPassing clouds.14 mph81%30.18 "HgN/A
10:00 pm41 °FPassing clouds.12 mph81%30.18 "HgN/A
9:30 pm43 °FPassing clouds.16 mph76%30.15 "HgN/A
9:00 pm43 °FPassing clouds.16 mph76%30.15 "HgN/A
8:30 pm46 °FPassing clouds.14 mph71%30.15 "HgN/A
8:00 pm48 °FPassing clouds.15 mph66%30.15 "HgN/A
7:30 pm48 °FPassing clouds.17 mph62%30.15 "HgN/A
7:00 pm50 °FPassing clouds.20 mph58%30.15 "HgN/A
6:30 pm52 °FPassing clouds.16 mph67%30.12 "HgN/A
6:00 pm54 °FPassing clouds.15 mph58%30.15 "HgN/A
5:30 pm54 °FPassing clouds.14 mph58%30.15 "HgN/A
5:00 pm54 °FScattered clouds.17 mph58%30.15 "HgN/A
4:30 pm54 °FScattered clouds.15 mph63%30.15 "HgN/A
4:00 pm54 °FScattered clouds.14 mph63%30.15 "HgN/A
3:30 pm55 °FScattered clouds.14 mph63%30.18 "HgN/A
3:00 pm54 °FScattered clouds.14 mph63%30.18 "HgN/A
2:30 pm54 °FScattered clouds.14 mph63%30.18 "HgN/A
2:00 pm54 °FScattered clouds.13 mph67%30.18 "HgN/A
1:30 pm52 °FScattered clouds.15 mph62%30.21 "HgN/A
1:00 pm50 °FPartly sunny.12 mph71%30.21 "HgN/A
12:30 pm48 °FPartly sunny.10 mph71%30.21 "HgN/A
12:00 pm48 °FPartly sunny.10 mph66%30.21 "HgN/A
11:30 am48 °FPartly sunny.12 mph66%30.21 "HgN/A
11:00 am48 °FPartly sunny.12 mph71%30.21 "HgN/A
10:30 am46 °FPartly sunny.10 mph71%30.21 "HgN/A
10:00 am45 °FPartly sunny.10 mph76%30.21 "HgN/A
9:30 am45 °FPartly sunny.9 mph81%30.21 "HgN/A
9:00 am43 °FPartly sunny.8 mph81%30.21 "HgN/A
Weather by CustomWeather, © 2024

See weather overview